| time (UTC) | temp F | wind direction | speed knots | gust knots | rain 1hr in | rain 24hr in | rain mn in | humidity % | barometer mb |
| 20260906225556 | 74 | 128 | 1.7 | 7.8 | 0.00 | 0.00 | 0.00 | 20 | 1004.0 |
| 20260906225056 | 74 | 128 | 1.7 | 7.8 | 0.00 | 0.00 | 0.00 | 19 | 1004.1 |
| 20260906224556 | 74 | 148 | 1.7 | 7.8 | 0.00 | 0.00 | 0.00 | 19 | 1004.1 |
| 20260906224057 | 74 | 138 | 0.9 | 7.8 | 0.00 | 0.00 | 0.00 | 20 | 1004.1 |
| 20260906223554 | 74 | 127 | 1.7 | 6.1 | 0.00 | 0.00 | 0.00 | 20 | 1004.2 |
| 20260906223055 | 74 | 134 | 0.0 | 7.0 | 0.00 | 0.00 | 0.00 | 19 | 1004.2 |
| 20260906222554 | 75 | 120 | 2.6 | 9.6 | 0.00 | 0.00 | 0.00 | 19 | 1004.3 |
| 20260906222053 | 74 | 120 | 3.5 | 11.3 | 0.00 | 0.00 | 0.00 | 19 | 1004.3 |
| 20260906221559 | 74 | 132 | 1.7 | 7.8 | 0.00 | 0.00 | 0.00 | 19 | 1004.4 |
| 20260906221051 | 75 | 134 | 2.6 | 7.8 | 0.00 | 0.00 | 0.00 | 18 | 1004.6 |
| 20260906220550 | 75 | 263 | 2.6 | 7.8 | 0.00 | 0.00 | 0.00 | 18 | 1004.7 |
| 20260906220050 | 75 | 125 | 2.6 | 9.6 | 0.00 | 0.00 | 0.00 | 15 | 1004.8 |
| 20260906215548 | 75 | 139 | 2.6 | 9.6 | 0.00 | 0.00 | 0.00 | 14 | 1004.8 |
| 20260906215048 | 75 | 162 | 2.6 | 8.7 | 0.00 | 0.00 | 0.00 | 13 | 1005.0 |
| 20260906214547 | 75 | 120 | 2.6 | 14.8 | 0.00 | 0.00 | 0.00 | 14 | 1005.1 |
| 20260906214047 | 75 | 134 | 4.3 | 14.8 | 0.00 | 0.00 | 0.00 | 13 | 1005.2 |
| 20260906213546 | 74 | 154 | 0.0 | 10.4 | 0.00 | 0.00 | 0.00 | 12 | 1005.2 |
| 20260906213056 | 74 | 119 | 1.7 | 7.0 | 0.00 | 0.00 | 0.00 | 12 | 1005.3 |
| 20260906212544 | 75 | 147 | 0.9 | 9.6 | 0.00 | 0.00 | 0.00 | 12 | 1005.4 |
| 20260906212044 | 75 | 146 | 2.6 | 10.4 | 0.00 | 0.00 | 0.00 | 14 | 1005.4 |
| 20260906211543 | 75 | 180 | 1.7 | 9.6 | 0.00 | 0.00 | 0.00 | 15 | 1005.4 |
| 20260906211042 | 75 | 142 | 0.9 | 7.8 | 0.00 | 0.00 | 0.00 | 17 | 1005.5 |
| 20260906210541 | 75 | 139 | 2.6 | 9.6 | 0.00 | 0.00 | 0.00 | 18 | 1005.5 |
| 20260906210043 | 75 | 145 | 3.5 | 9.6 | 0.00 | 0.00 | 0.00 | 18 | 1005.7 |
| 20260906205540 | 75 | 140 | 2.6 | 9.6 | 0.00 | 0.00 | 0.00 | 19 | 1005.6 |
| 20260906205038 | 75 | 136 | 2.6 | 13.0 | 0.00 | 0.00 | 0.00 | 19 | 1005.7 |
| 20260906204556 | 75 | 152 | 0.9 | 10.4 | 0.00 | 0.00 | 0.00 | 19 | 1005.8 |
| 20260906204037 | 75 | 145 | 3.5 | 10.4 | 0.00 | 0.00 | 0.00 | 19 | 1005.8 |
| 20260906203537 | 75 | 297 | 2.6 | 9.6 | 0.00 | 0.00 | 0.00 | 18 | 1005.9 |
| 20260906203037 | 75 | 119 | 4.3 | 9.6 | 0.00 | 0.00 | 0.00 | 18 | 1005.9 |
| 20260906202537 | 75 | 147 | 2.6 | 7.8 | 0.00 | 0.00 | 0.00 | 20 | 1005.8 |
| 20260906202036 | 75 | 151 | 0.9 | 7.8 | 0.00 | 0.00 | 0.00 | 19 | 1006.0 |
| 20260906201538 | 74 | 126 | 0.0 | 7.8 | 0.00 | 0.00 | 0.00 | 18 | 1006.0 |
| 20260906201034 | 74 | 128 | 3.5 | 7.8 | 0.00 | 0.00 | 0.00 | 19 | 1006.0 |
| 20260906200534 | 74 | 155 | 1.7 | 9.6 | 0.00 | 0.00 | 0.00 | 20 | 1006.0 |
| 20260906200034 | 74 | 175 | 2.6 | 11.3 | 0.00 | 0.00 | 0.00 | 20 | 1006.1 |
| 20260906195534 | 74 | 171 | 4.3 | 11.3 | 0.00 | 0.00 | 0.00 | 20 | 1006.2 |
| 20260906195032 | 74 | 134 | 2.6 | 8.7 | 0.00 | 0.00 | 0.00 | 19 | 1006.1 |
| 20260906194532 | 74 | 258 | 1.7 | 9.6 | 0.00 | 0.00 | 0.00 | 20 | 1006.2 |
| 20260906194032 | 74 | 161 | 1.7 | 12.2 | 0.00 | 0.00 | 0.00 | 21 | 1006.2 |
| 20260906193530 | 74 | 141 | 2.6 | 12.2 | 0.00 | 0.00 | 0.00 | 20 | 1006.1 |
| 20260906193029 | 74 | 146 | 1.7 | 7.8 | 0.00 | 0.00 | 0.00 | 20 | 1006.1 |
| 20260906192629 | 74 | 272 | 0.9 | 8.7 | 0.00 | 0.00 | 0.00 | 21 | 1006.0 |
| 20260906192029 | 73 | 126 | 3.5 | 8.7 | 0.00 | 0.00 | 0.00 | 21 | 1006.1 |
| 20260906191530 | 73 | 182 | 1.7 | 7.0 | 0.00 | 0.00 | 0.00 | 21 | 1006.1 |
| 20260906191028 | 73 | 315 | 1.7 | 5.2 | 0.00 | 0.00 | 0.00 | 26 | 1006.2 |
| 20260906190529 | 73 | 237 | 0.9 | 11.3 | 0.00 | 0.00 | 0.00 | 25 | 1006.1 |
| 20260906190027 | 73 | 117 | 2.6 | 11.3 | 0.00 | 0.00 | 0.00 | 24 | 1006.2 |
| 20260906185526 | 74 | 118 | 4.3 | 10.4 | 0.00 | 0.00 | 0.00 | 19 | 1006.2 |
| 20260906185024 | 73 | 139 | 3.5 | 8.7 | 0.00 | 0.00 | 0.00 | 22 | 1006.2 |
| 20260906184525 | 73 | 138 | 0.0 | 7.8 | 0.00 | 0.00 | 0.00 | 23 | 1006.2 |
| 20260906184021 | 72 | 167 | 1.7 | 5.2 | 0.00 | 0.00 | 0.00 | 26 | 1006.2 |
| 20260906183520 | 72 | 169 | 1.7 | 10.4 | 0.00 | 0.00 | 0.00 | 26 | 1006.4 |
| 20260906183020 | 72 | 257 | 2.6 | 10.4 | 0.00 | 0.00 | 0.00 | 25 | 1006.4 |
| 20260906182519 | 72 | 157 | 0.9 | 7.8 | 0.00 | 0.00 | 0.00 | 25 | 1006.5 |
| 20260906182018 | 72 | 152 | 1.7 | 5.2 | 0.00 | 0.00 | 0.00 | 26 | 1006.4 |
| 20260906181517 | 72 | 304 | 1.7 | 5.2 | 0.00 | 0.00 | 0.00 | 26 | 1006.6 |
| 20260906181016 | 72 | 173 | 0.9 | 5.2 | 0.00 | 0.00 | 0.00 | 28 | 1006.6 |
| 20260906180518 | 72 | 300 | 0.9 | 3.5 | 0.00 | 0.00 | 0.00 | 28 | 1006.6 |
| 20260906180016 | 72 | 157 | 0.9 | 4.3 | 0.00 | 0.00 | 0.00 | 28 | 1006.8 |
| 20260906175515 | 72 | 317 | 0.9 | 3.5 | 0.00 | 0.00 | 0.00 | 28 | 1006.9 |
| 20260906175011 | 72 | 133 | 0.9 | 3.5 | 0.00 | 0.00 | 0.00 | 29 | 1007.0 |
| 20260906174511 | 71 | 338 | 0.0 | 3.5 | 0.00 | 0.00 | 0.00 | 30 | 1007.0 |
| 20260906174010 | 71 | 148 | 0.9 | 4.3 | 0.00 | 0.00 | 0.00 | 30 | 1007.2 |
| 20260906173510 | 71 | 155 | 0.9 | 3.5 | 0.00 | 0.00 | 0.00 | 32 | 1007.2 |
| 20260906173009 | 71 | 143 | 0.0 | 6.1 | 0.00 | 0.00 | 0.00 | 32 | 1007.2 |
| 20260906172507 | 70 | 191 | 1.7 | 6.1 | 0.00 | 0.00 | 0.00 | 33 | 1007.3 |
| 20260906172007 | 70 | 248 | 0.9 | 7.8 | 0.00 | 0.00 | 0.00 | 30 | 1007.4 |
| 20260906171507 | 70 | 157 | 2.6 | 7.8 | 0.00 | 0.00 | 0.00 | 30 | 1007.5 |
| 20260906171006 | 70 | 266 | 0.9 | 7.8 | 0.00 | 0.00 | 0.00 | 30 | 1007.5 |
| 20260906170505 | 70 | 162 | 0.9 | 7.8 | 0.00 | 0.00 | 0.00 | 32 | 1007.4 |
| 20260906170005 | 70 | 143 | 1.7 | 7.8 | 0.00 | 0.00 | 0.00 | 33 | 1007.5 |
| 20260906165504 | 70 | 140 | 0.9 | 5.2 | 0.00 | 0.00 | 0.00 | 34 | 1007.5 |
| 20260906165002 | 69 | 134 | 0.9 | 6.1 | 0.00 | 0.00 | 0.00 | 37 | 1007.6 |
| 20260906164501 | 68 | 278 | 0.9 | 6.1 | 0.00 | 0.00 | 0.00 | 37 | 1007.5 |
| 20260906164100 | 68 | 300 | 0.9 | 4.3 | 0.00 | 0.00 | 0.00 | 37 | 1007.5 |
| 20260906163559 | 68 | 281 | 0.9 | 7.0 | 0.00 | 0.00 | 0.00 | 39 | 1007.7 |
| 20260906163108 | 67 | 132 | 1.7 | 6.1 | 0.00 | 0.00 | 0.00 | 39 | 1007.7 |
| 20260906162558 | 67 | 178 | 0.0 | 6.1 | 0.00 | 0.00 | 0.00 | 42 | 1007.7 |
| 20260906162056 | 66 | 142 | 1.7 | 5.2 | 0.00 | 0.00 | 0.00 | 43 | 1007.6 |
| 20260906161556 | 66 | 285 | 0.9 | 9.6 | 0.00 | 0.00 | 0.00 | 42 | 1007.7 |
| 20260906161054 | 66 | 114 | 1.7 | 9.6 | 0.00 | 0.00 | 0.00 | 43 | 1007.6 |
| 20260906160555 | 65 | 125 | 0.9 | 3.5 | 0.00 | 0.00 | 0.00 | 45 | 1007.5 |
| 20260906160052 | 64 | 159 | 0.0 | 2.6 | 0.00 | 0.00 | 0.00 | 49 | 1007.6 |
| 20260906155551 | 63 | 303 | 0.0 | 3.5 | 0.00 | 0.00 | 0.00 | 51 | 1007.6 |
| 20260906155048 | 63 | 291 | 0.0 | 2.6 | 0.00 | 0.00 | 0.00 | 52 | 1007.7 |
| 20260906154552 | 62 | 261 | 0.0 | 1.7 | 0.00 | 0.00 | 0.00 | 53 | 1007.7 |
| 20260906154045 | 61 | 281 | 0.0 | 1.7 | 0.00 | 0.00 | 0.00 | 54 | 1007.6 |
| 20260906153547 | 61 | 281 | 0.0 | 1.7 | 0.00 | 0.00 | 0.00 | 54 | 1007.7 |
| 20260906153043 | 60 | 275 | 0.0 | 2.6 | 0.00 | 0.00 | 0.00 | 55 | 1007.7 |
| 20260906152545 | 60 | 279 | 0.0 | 2.6 | 0.00 | 0.00 | 0.00 | 56 | 1007.6 |
| 20260906152042 | 59 | 277 | 0.0 | 0.0 | 0.00 | 0.00 | 0.00 | 56 | 1007.6 |
| 20260906151540 | 59 | 277 | 0.0 | 0.0 | 0.00 | 0.00 | 0.00 | 57 | 1007.7 |
| 20260906151037 | 58 | 277 | 0.0 | 0.0 | 0.00 | 0.00 | 0.00 | 58 | 1007.7 |
| 20260906150535 | 57 | 277 | 0.0 | 0.0 | 0.00 | 0.00 | 0.00 | 60 | 1007.7 |
| 20260906150035 | 57 | 277 | 0.0 | 0.0 | 0.00 | 0.00 | 0.00 | 61 | 1007.8 |
| 20260906145533 | 56 | 277 | 0.0 | 0.0 | 0.00 | 0.00 | 0.00 | 61 | 1007.7 |
| 20260906145032 | 56 | 277 | 0.0 | 0.0 | 0.00 | 0.00 | 0.00 | 62 | 1007.8 |
| 20260906144533 | 55 | 277 | 0.0 | 0.0 | 0.00 | 0.00 | 0.00 | 64 | 1007.7 |
| 20260906144028 | 55 | 277 | 0.0 | 0.0 | 0.00 | 0.00 | 0.00 | 66 | 1007.7 |
| 20260906143526 | 54 | 277 | 0.0 | 0.0 | 0.00 | 0.00 | 0.00 | 68 | 1007.7 |
| 20260906143033 | 53 | 277 | 0.0 | 0.0 | 0.00 | 0.00 | 0.00 | 70 | 1007.7 |
| 20260906142524 | 52 | 277 | 0.0 | 0.0 | 0.00 | 0.00 | 0.00 | 71 | 1007.8 |
| 20260906142023 | 51 | 277 | 0.0 | 0.0 | 0.00 | 0.00 | 0.00 | 72 | 1007.8 |
| 20260906141529 | 51 | 277 | 0.0 | 0.0 | 0.00 | 0.00 | 0.00 | 73 | 1007.8 |
| 20260906141022 | 50 | 277 | 0.0 | 0.0 | 0.00 | 0.00 | 0.00 | 74 | 1007.8 |
| 20260906140521 | 49 | 277 | 0.0 | 0.0 | 0.00 | 0.00 | 0.00 | 75 | 1007.6 |
| 20260906140031 | 49 | 277 | 0.0 | 0.0 | 0.00 | 0.00 | 0.00 | 75 | 1007.5 |
| 20260906135526 | 49 | 277 | 0.0 | 0.0 | 0.00 | 0.00 | 0.00 | 76 | 1007.5 |
| 20260906135024 | 49 | 277 | 0.0 | 0.0 | 0.00 | 0.00 | 0.00 | 76 | 1007.6 |
| 20260906134521 | 49 | 277 | 0.0 | 0.0 | 0.00 | 0.00 | 0.00 | 76 | 1007.6 |
| 20260906134023 | 49 | 277 | 0.0 | 0.0 | 0.00 | 0.00 | 0.00 | 75 | 1007.5 |
| 20260906133520 | 49 | 277 | 0.0 | 0.0 | 0.00 | 0.00 | 0.00 | 75 | 1007.3 |
| 20260906133020 | 49 | 277 | 0.0 | 0.0 | 0.00 | 0.00 | 0.00 | 77 | 1007.2 |
| 20260906132522 | 49 | 277 | 0.0 | 0.0 | 0.00 | 0.00 | 0.00 | 76 | 1007.2 |
| 20260906132021 | 49 | 277 | 0.0 | 0.0 | 0.00 | 0.00 | 0.00 | 74 | 1007.3 |
| 20260906131532 | 49 | 277 | 0.0 | 0.0 | 0.00 | 0.00 | 0.00 | 74 | 1007.2 |
| 20260906131020 | 48 | 277 | 0.0 | 0.0 | 0.00 | 0.00 | 0.00 | 75 | 1007.2 |
| 20260906130520 | 48 | 277 | 0.0 | 0.0 | 0.00 | 0.00 | 0.00 | 75 | 1007.1 |
| 20260906130019 | 48 | 277 | 0.0 | 0.0 | 0.00 | 0.00 | 0.00 | 76 | 1007.1 |
| 20260906125520 | 48 | 277 | 0.0 | 0.0 | 0.00 | 0.00 | 0.00 | 75 | 1007.2 |
| 20260906125020 | 48 | 277 | 0.0 | 0.0 | 0.00 | 0.00 | 0.00 | 75 | 1007.2 |
| 20260906124518 | 48 | 277 | 0.0 | 0.0 | 0.00 | 0.00 | 0.00 | 75 | 1007.1 |
| 20260906124019 | 48 | 277 | 0.0 | 0.0 | 0.00 | 0.00 | 0.00 | 74 | 1007.0 |
| 20260906123518 | 49 | 277 | 0.0 | 0.0 | 0.00 | 0.00 | 0.00 | 73 | 1007.0 |
| 20260906123017 | 49 | 277 | 0.0 | 0.0 | 0.00 | 0.00 | 0.00 | 74 | 1006.8 |
| 20260906122517 | 49 | 277 | 0.0 | 0.0 | 0.00 | 0.00 | 0.00 | 74 | 1006.8 |
| 20260906122017 | 49 | 277 | 0.0 | 0.0 | 0.00 | 0.00 | 0.00 | 74 | 1007.0 |
| 20260906121516 | 48 | 277 | 0.0 | 0.0 | 0.00 | 0.00 | 0.00 | 75 | 1006.9 |
| 20260906121016 | 48 | 277 | 0.0 | 0.0 | 0.00 | 0.00 | 0.00 | 75 | 1006.9 |
| 20260906120516 | 48 | 277 | 0.0 | 0.0 | 0.00 | 0.00 | 0.00 | 75 | 1007.0 |
| 20260906120014 | 48 | 277 | 0.0 | 0.0 | 0.00 | 0.00 | 0.00 | 75 | 1007.1 |
| 20260906115515 | 48 | 277 | 0.0 | 0.0 | 0.00 | 0.00 | 0.00 | 75 | 1007.2 |
| 20260906115014 | 48 | 277 | 0.0 | 0.0 | 0.00 | 0.00 | 0.00 | 74 | 1007.2 |
| 20260906114513 | 48 | 277 | 0.0 | 0.0 | 0.00 | 0.00 | 0.00 | 74 | 1007.2 |
| 20260906114011 | 49 | 277 | 0.0 | 0.0 | 0.00 | 0.00 | 0.00 | 74 | 1007.2 |
| 20260906113511 | 49 | 277 | 0.0 | 0.0 | 0.00 | 0.00 | 0.00 | 74 | 1007.3 |
| 20260906113017 | 49 | 277 | 0.0 | 0.0 | 0.00 | 0.00 | 0.00 | 73 | 1007.4 |
| 20260906112511 | 49 | 277 | 0.0 | 0.0 | 0.00 | 0.00 | 0.00 | 73 | 1007.4 |
| 20260906112011 | 49 | 277 | 0.0 | 0.0 | 0.00 | 0.00 | 0.00 | 73 | 1007.3 |
| 20260906111511 | 49 | 277 | 0.0 | 0.0 | 0.00 | 0.00 | 0.00 | 73 | 1007.4 |
| 20260906111010 | 49 | 277 | 0.0 | 0.0 | 0.00 | 0.00 | 0.00 | 74 | 1007.3 |
| 20260906110510 | 48 | 277 | 0.0 | 0.0 | 0.00 | 0.00 | 0.00 | 74 | 1007.4 |
| 20260906110010 | 48 | 277 | 0.0 | 0.0 | 0.00 | 0.00 | 0.00 | 75 | 1007.5 |
| 20260906105509 | 48 | 277 | 0.0 | 0.0 | 0.00 | 0.00 | 0.00 | 75 | 1007.5 |
| 20260906105010 | 48 | 277 | 0.0 | 0.0 | 0.00 | 0.00 | 0.00 | 76 | 1007.4 |
| 20260906104510 | 48 | 277 | 0.0 | 0.0 | 0.00 | 0.00 | 0.00 | 76 | 1007.3 |
| 20260906104008 | 48 | 277 | 0.0 | 0.0 | 0.00 | 0.00 | 0.00 | 75 | 1007.4 |
| 20260906103507 | 48 | 277 | 0.0 | 0.0 | 0.00 | 0.00 | 0.00 | 75 | 1007.5 |
| 20260906103008 | 48 | 277 | 0.0 | 0.0 | 0.00 | 0.00 | 0.00 | 75 | 1007.5 |
| 20260906102507 | 49 | 277 | 0.0 | 0.0 | 0.00 | 0.00 | 0.00 | 74 | 1007.5 |
| 20260906102007 | 49 | 277 | 0.0 | 0.0 | 0.00 | 0.00 | 0.00 | 74 | 1007.4 |
| 20260906101505 | 49 | 277 | 0.0 | 0.0 | 0.00 | 0.00 | 0.00 | 74 | 1007.4 |
| 20260906101004 | 49 | 277 | 0.0 | 0.0 | 0.00 | 0.00 | 0.00 | 74 | 1007.4 |
| 20260906100505 | 49 | 277 | 0.0 | 0.0 | 0.00 | 0.00 | 0.00 | 73 | 1007.4 |
| 20260906100005 | 49 | 277 | 0.0 | 0.0 | 0.00 | 0.00 | 0.00 | 74 | 1007.5 |
| 20260906095503 | 49 | 277 | 0.0 | 0.0 | 0.00 | 0.00 | 0.00 | 74 | 1007.4 |
| 20260906095004 | 49 | 277 | 0.0 | 0.0 | 0.00 | 0.00 | 0.00 | 75 | 1007.3 |
| 20260906094506 | 49 | 277 | 0.0 | 0.0 | 0.00 | 0.00 | 0.00 | 75 | 1007.3 |
| 20260906094002 | 49 | 277 | 0.0 | 0.0 | 0.00 | 0.00 | 0.00 | 75 | 1007.4 |
| 20260906093503 | 49 | 277 | 0.0 | 0.0 | 0.00 | 0.00 | 0.00 | 75 | 1007.4 |
| 20260906093001 | 49 | 277 | 0.0 | 0.0 | 0.00 | 0.00 | 0.00 | 75 | 1007.5 |
| 20260906092501 | 49 | 277 | 0.0 | 0.0 | 0.00 | 0.00 | 0.00 | 75 | 1007.5 |
| 20260906092001 | 49 | 277 | 0.0 | 0.0 | 0.00 | 0.00 | 0.00 | 75 | 1007.7 |
| 20260906091505 | 49 | 277 | 0.0 | 0.0 | 0.00 | 0.00 | 0.00 | 75 | 1007.7 |
| 20260906091001 | 49 | 277 | 0.0 | 0.0 | 0.00 | 0.00 | 0.00 | 75 | 1007.7 |
| 20260906090500 | 49 | 277 | 0.0 | 0.0 | 0.00 | 0.00 | 0.00 | 75 | 1007.7 |
| 20260906090001 | 49 | 277 | 0.0 | 0.0 | 0.00 | 0.00 | 0.00 | 75 | 1007.7 |
| 20260906085600 | 49 | 277 | 0.0 | 0.0 | 0.00 | 0.00 | 0.00 | 76 | 1007.7 |
| 20260906085103 | 49 | 277 | 0.0 | 0.0 | 0.00 | 0.00 | 0.00 | 76 | 1007.6 |
| 20260906084600 | 49 | 277 | 0.0 | 0.0 | 0.00 | 0.00 | 0.00 | 77 | 1007.6 |
| 20260906084059 | 49 | 277 | 0.0 | 0.0 | 0.00 | 0.00 | 0.00 | 77 | 1007.6 |
| 20260906083558 | 49 | 277 | 0.0 | 0.0 | 0.00 | 0.00 | 0.00 | 77 | 1007.6 |
| 20260906083101 | 50 | 277 | 0.0 | 0.0 | 0.00 | 0.00 | 0.00 | 76 | 1007.6 |
| 20260906082557 | 50 | 277 | 0.0 | 0.0 | 0.00 | 0.00 | 0.00 | 76 | 1007.5 |
| 20260906082100 | 50 | 277 | 0.0 | 0.0 | 0.00 | 0.00 | 0.00 | 76 | 1007.5 |
| 20260906081558 | 50 | 277 | 0.0 | 0.0 | 0.00 | 0.00 | 0.00 | 76 | 1007.4 |
| 20260906081056 | 50 | 277 | 0.0 | 0.0 | 0.00 | 0.00 | 0.00 | 75 | 1007.5 |
| 20260906080556 | 50 | 277 | 0.0 | 0.0 | 0.00 | 0.00 | 0.00 | 76 | 1007.5 |
| 20260906080107 | 50 | 277 | 0.0 | 0.0 | 0.00 | 0.00 | 0.00 | 76 | 1007.5 |
| 20260906075555 | 50 | 277 | 0.0 | 0.0 | 0.00 | 0.00 | 0.00 | 76 | 1007.5 |
| 20260906075055 | 50 | 277 | 0.0 | 0.0 | 0.00 | 0.00 | 0.00 | 77 | 1007.4 |
| 20260906074559 | 50 | 277 | 0.0 | 0.0 | 0.00 | 0.00 | 0.00 | 77 | 1007.5 |
| 20260906074055 | 50 | 277 | 0.0 | 0.0 | 0.00 | 0.00 | 0.00 | 77 | 1007.5 |
| 20260906073555 | 50 | 277 | 0.0 | 0.0 | 0.00 | 0.00 | 0.00 | 77 | 1007.6 |
| 20260906073054 | 50 | 277 | 0.0 | 0.0 | 0.00 | 0.00 | 0.00 | 77 | 1007.7 |
| 20260906072554 | 50 | 277 | 0.0 | 0.0 | 0.00 | 0.00 | 0.00 | 77 | 1007.8 |
| 20260906072055 | 50 | 277 | 0.0 | 0.0 | 0.00 | 0.00 | 0.00 | 76 | 1007.7 |
| 20260906071600 | 50 | 277 | 0.0 | 0.0 | 0.00 | 0.00 | 0.00 | 76 | 1007.7 |
| 20260906071053 | 51 | 277 | 0.0 | 0.0 | 0.00 | 0.00 | 0.00 | 75 | 1007.6 |
| 20260906070553 | 51 | 277 | 0.0 | 0.0 | 0.00 | 0.00 | 0.00 | 75 | 1007.5 |
| 20260906070052 | 51 | 277 | 0.0 | 0.0 | 0.00 | 0.00 | 0.00 | 75 | 1007.5 |
| 20260906065553 | 51 | 277 | 0.0 | 0.0 | 0.00 | 0.00 | 0.00 | 75 | 1007.5 |
| 20260906065052 | 51 | 277 | 0.0 | 0.0 | 0.00 | 0.00 | 0.00 | 76 | 1007.6 |
| 20260906064551 | 50 | 277 | 0.0 | 0.0 | 0.00 | 0.00 | 0.00 | 77 | 1007.6 |
| 20260906064051 | 50 | 277 | 0.0 | 0.0 | 0.00 | 0.00 | 0.00 | 77 | 1007.6 |
| 20260906063549 | 50 | 277 | 0.0 | 0.0 | 0.00 | 0.00 | 0.00 | 77 | 1007.6 |
| 20260906063055 | 50 | 277 | 0.0 | 0.0 | 0.00 | 0.00 | 0.00 | 78 | 1007.5 |
| 20260906062553 | 50 | 277 | 0.0 | 0.9 | 0.00 | 0.00 | 0.00 | 77 | 1007.4 |
| 20260906062047 | 51 | 277 | 0.0 | 0.9 | 0.00 | 0.00 | 0.00 | 77 | 1007.4 |
| 20260906061548 | 51 | 277 | 0.0 | 0.9 | 0.00 | 0.00 | 0.00 | 77 | 1007.4 |
| 20260906061045 | 51 | 276 | 0.0 | 0.9 | 0.00 | 0.00 | 0.00 | 77 | 1007.3 |
| 20260906060545 | 51 | 276 | 0.0 | 1.7 | 0.00 | 0.00 | 0.00 | 76 | 1007.3 |
| 20260906060044 | 52 | 275 | 0.0 | 1.7 | 0.00 | 0.00 | 0.00 | 76 | 1007.3 |
| 20260906055545 | 52 | 272 | 0.0 | 1.7 | 0.00 | 0.00 | 0.00 | 76 | 1007.3 |
| 20260906055044 | 52 | 272 | 0.0 | 2.6 | 0.00 | 0.00 | 0.00 | 76 | 1007.3 |
| 20260906054544 | 52 | 308 | 0.0 | 2.6 | 0.00 | 0.00 | 0.00 | 76 | 1007.4 |
| 20260906054044 | 52 | 312 | 0.0 | 0.9 | 0.00 | 0.00 | 0.00 | 76 | 1007.4 |
| 20260906053543 | 52 | 312 | 0.0 | 0.9 | 0.00 | 0.00 | 0.00 | 76 | 1007.3 |
| 20260906053050 | 52 | 346 | 0.0 | 0.9 | 0.00 | 0.00 | 0.00 | 76 | 1007.3 |
| 20260906052542 | 52 | 329 | 0.0 | 1.7 | 0.00 | 0.00 | 0.00 | 76 | 1007.3 |
| 20260906052042 | 52 | 303 | 0.0 | 1.7 | 0.00 | 0.00 | 0.00 | 75 | 1007.4 |
| 20260906051542 | 52 | 295 | 0.0 | 0.9 | 0.00 | 0.00 | 0.00 | 75 | 1007.4 |
| 20260906051042 | 52 | 309 | 0.0 | 3.5 | 0.00 | 0.00 | 0.00 | 76 | 1007.6 |
| 20260906050542 | 52 | 302 | 0.9 | 3.5 | 0.00 | 0.00 | 0.00 | 76 | 1007.5 |
| 20260906050043 | 52 | 297 | 0.0 | 6.1 | 0.00 | 0.00 | 0.00 | 76 | 1007.5 |
| 20260906045545 | 52 | 311 | 0.0 | 6.1 | 0.00 | 0.00 | 0.00 | 76 | 1007.6 |
| 20260906045045 | 52 | 310 | 0.0 | 4.3 | 0.00 | 0.00 | 0.00 | 76 | 1007.5 |
| 20260906044542 | 52 | 304 | 0.0 | 3.5 | 0.00 | 0.00 | 0.00 | 76 | 1007.5 |
| 20260906044041 | 52 | 332 | 0.9 | 3.5 | 0.00 | 0.00 | 0.00 | 76 | 1007.6 |
| 20260906043540 | 52 | 298 | 0.0 | 3.5 | 0.00 | 0.00 | 0.00 | 76 | 1007.6 |
| 20260906043040 | 52 | 329 | 0.0 | 2.6 | 0.00 | 0.00 | 0.00 | 76 | 1007.6 |
| 20260906042538 | 52 | 316 | 0.0 | 1.7 | 0.00 | 0.00 | 0.00 | 76 | 1007.7 |
| 20260906042038 | 52 | 301 | 0.0 | 4.3 | 0.00 | 0.00 | 0.00 | 76 | 1007.8 |
| 20260906041537 | 53 | 292 | 0.0 | 4.3 | 0.00 | 0.00 | 0.00 | 76 | 1007.8 |
| 20260906041037 | 53 | 311 | 0.0 | 3.5 | 0.00 | 0.00 | 0.00 | 75 | 1008.0 |
| 20260906040535 | 53 | 316 | 0.9 | 4.3 | 0.00 | 0.00 | 0.00 | 74 | 1007.8 |
| 20260906040038 | 53 | 319 | 0.9 | 4.3 | 0.00 | 0.00 | 0.00 | 73 | 1007.9 |
| 20260906035533 | 53 | 330 | 0.9 | 3.5 | 0.00 | 0.00 | 0.00 | 73 | 1008.0 |
| 20260906035034 | 53 | 302 | 0.0 | 3.5 | 0.00 | 0.00 | 0.00 | 71 | 1008.0 |
| 20260906034541 | 53 | 317 | 0.0 | 3.5 | 0.00 | 0.00 | 0.00 | 71 | 1008.0 |
| 20260906034031 | 54 | 302 | 0.0 | 2.6 | 0.00 | 0.00 | 0.00 | 70 | 1007.9 |
| 20260906033529 | 54 | 311 | 0.0 | 4.3 | 0.00 | 0.00 | 0.00 | 70 | 1008.0 |
| 20260906033030 | 55 | 329 | 0.9 | 3.5 | 0.00 | 0.00 | 0.00 | 68 | 1008.1 |
| 20260906032527 | 55 | 309 | 0.0 | 3.5 | 0.00 | 0.00 | 0.00 | 66 | 1007.9 |
| 20260906032026 | 56 | 315 | 0.0 | 4.3 | 0.00 | 0.00 | 0.00 | 64 | 1007.9 |
| 20260906031524 | 57 | 322 | 0.9 | 4.3 | 0.00 | 0.00 | 0.00 | 62 | 1007.8 |
| 20260906031023 | 58 | 300 | 0.9 | 4.3 | 0.00 | 0.00 | 0.00 | 60 | 1007.8 |
| 20260906030522 | 59 | 297 | 0.0 | 2.6 | 0.00 | 0.00 | 0.00 | 57 | 1007.5 |
| 20260906030020 | 59 | 296 | 0.0 | 2.6 | 0.00 | 0.00 | 0.00 | 55 | 1007.4 |
| 20260906025522 | 60 | 134 | 0.0 | 0.0 | 0.00 | 0.00 | 0.00 | 51 | 1007.2 |
| 20260906025025 | 60 | 134 | 0.0 | 0.0 | 0.00 | 0.00 | 0.00 | 49 | 1007.1 |
| 20260906024519 | 60 | 134 | 0.0 | 0.0 | 0.00 | 0.00 | 0.00 | 50 | 1007.0 |
| 20260906024019 | 60 | 134 | 0.0 | 0.0 | 0.00 | 0.00 | 0.00 | 51 | 1006.9 |
| 20260906023519 | 60 | 134 | 0.0 | 0.0 | 0.00 | 0.00 | 0.00 | 49 | 1006.7 |
| 20260906023018 | 60 | 134 | 0.0 | 0.0 | 0.00 | 0.00 | 0.00 | 48 | 1006.6 |
| 20260906022518 | 60 | 134 | 0.0 | 0.0 | 0.00 | 0.00 | 0.00 | 48 | 1006.7 |
| 20260906022021 | 60 | 134 | 0.0 | 0.0 | 0.00 | 0.00 | 0.00 | 49 | 1006.6 |
| 20260906021520 | 61 | 134 | 0.0 | 0.0 | 0.00 | 0.00 | 0.00 | 48 | 1006.4 |
| 20260906021017 | 61 | 134 | 0.0 | 0.0 | 0.00 | 0.00 | 0.00 | 48 | 1006.4 |
| 20260906020517 | 61 | 134 | 0.0 | 1.7 | 0.00 | 0.00 | 0.00 | 47 | 1006.3 |
| 20260906020018 | 61 | 134 | 0.0 | 2.6 | 0.00 | 0.00 | 0.00 | 47 | 1006.3 |
| 20260906015518 | 61 | 132 | 0.0 | 2.6 | 0.00 | 0.00 | 0.00 | 47 | 1006.2 |
| 20260906015017 | 62 | 128 | 0.0 | 2.6 | 0.00 | 0.00 | 0.00 | 46 | 1006.1 |
| 20260906014526 | 62 | 130 | 0.9 | 4.3 | 0.00 | 0.00 | 0.00 | 46 | 1006.0 |
| 20260906014020 | 62 | 121 | 0.9 | 4.3 | 0.00 | 0.00 | 0.00 | 46 | 1005.9 |
| 20260906013516 | 62 | 123 | 0.0 | 2.6 | 0.00 | 0.00 | 0.00 | 46 | 1005.9 |
| 20260906013017 | 62 | 129 | 0.0 | 1.7 | 0.00 | 0.00 | 0.00 | 45 | 1005.8 |
| 20260906012515 | 62 | 128 | 0.0 | 1.7 | 0.00 | 0.00 | 0.00 | 45 | 1005.8 |
| 20260906012116 | 63 | 129 | 0.0 | 1.7 | 0.00 | 0.00 | 0.00 | 44 | 1005.8 |
| 20260906011531 | 63 | 130 | 0.0 | 2.6 | 0.00 | 0.00 | 0.00 | 43 | 1005.8 |
| 20260906011015 | 64 | 129 | 0.0 | 6.1 | 0.00 | 0.00 | 0.00 | 42 | 1005.8 |
| 20260906010515 | 64 | 125 | 0.9 | 6.1 | 0.00 | 0.00 | 0.00 | 42 | 1005.7 |
| 20260906010015 | 64 | 128 | 0.0 | 0.0 | 0.00 | 0.00 | 0.00 | 41 | 1005.8 |
| 20260906005514 | 65 | 128 | 0.0 | 0.9 | 0.00 | 0.00 | 0.00 | 40 | 1005.8 |
| 20260906005018 | 65 | 120 | 0.0 | 7.8 | 0.00 | 0.00 | 0.00 | 40 | 1005.7 |
| 20260906004524 | 66 | 128 | 3.5 | 8.7 | 0.00 | 0.00 | 0.00 | 39 | 1005.7 |
| 20260906004015 | 66 | 117 | 1.7 | 8.7 | 0.00 | 0.00 | 0.00 | 38 | 1005.6 |
| 20260906003514 | 67 | 132 | 0.9 | 6.1 | 0.00 | 0.00 | 0.00 | 38 | 1005.6 |
| 20260906003014 | 67 | 129 | 1.7 | 6.1 | 0.00 | 0.00 | 0.00 | 38 | 1005.5 |
| 20260906002513 | 68 | 115 | 0.0 | 2.6 | 0.00 | 0.00 | 0.00 | 38 | 1005.5 |
| 20260906002012 | 68 | 171 | 0.0 | 2.6 | 0.00 | 0.00 | 0.00 | 37 | 1005.4 |
| 20260906001511 | 67 | 132 | 0.0 | 0.9 | 0.00 | 0.00 | 0.00 | 37 | 1005.4 |
| 20260906001010 | 67 | 132 | 0.0 | 0.9 | 0.00 | 0.00 | 0.00 | 38 | 1005.4 |
| 20260906000513 | 67 | 132 | 0.0 | 2.6 | 0.00 | 0.00 | 0.00 | 38 | 1005.4 |
| 20260906000010 | 67 | 132 | 0.0 | 2.6 | 0.00 | 0.00 | 0.00 | 37 | 1005.4 |
| 20260905235509 | 67 | 132 | 0.0 | 0.9 | 0.00 | 0.00 | 0.00 | 37 | 1005.4 |
| 20260905235010 | 67 | 132 | 0.0 | 0.9 | 0.00 | 0.00 | 0.00 | 36 | 1005.4 |
| 20260905234509 | 68 | 132 | 0.0 | 0.9 | 0.00 | 0.00 | 0.00 | 35 | 1005.4 |
| 20260905234009 | 68 | 132 | 0.0 | 0.0 | 0.00 | 0.00 | 0.00 | 34 | 1005.4 |
| 20260905233508 | 68 | 132 | 0.0 | 1.7 | 0.00 | 0.00 | 0.00 | 35 | 1005.5 |
| 20260905233007 | 68 | 132 | 0.0 | 1.7 | 0.00 | 0.00 | 0.00 | 34 | 1005.5 |
| 20260905232508 | 68 | 130 | 0.0 | 4.3 | 0.00 | 0.00 | 0.00 | 34 | 1005.5 |
| 20260905232009 | 68 | 129 | 0.9 | 4.3 | 0.00 | 0.00 | 0.00 | 34 | 1005.5 |
| 20260905231508 | 68 | 138 | 0.0 | 1.7 | 0.00 | 0.00 | 0.00 | 35 | 1005.5 |
| 20260905231007 | 68 | 141 | 0.0 | 1.7 | 0.00 | 0.00 | 0.00 | 35 | 1005.5 |
| 20260905230508 | 68 | 140 | 0.0 | 2.6 | 0.00 | 0.00 | 0.00 | 36 | 1005.6 |
| 20260905230007 | 68 | 112 | 0.0 | 2.6 | 0.00 | 0.00 | 0.00 | 36 | 1005.5 |